DW0359 Weather Reports


Display with metric or nautical units.
time (UTC)temp
F
wind
direction
speed
MPH
gust
MPH
rain 1hr
in
rain 24hr
in
rain mn
in
humidity
%
barometer
mb
20260504044543 61 0 0.0 0.0 0.00 0.00 0.00 78 1009.0
20260504043055 62 0 0.0 0.0 0.00 0.00 0.00 77 1009.2
20260504041547 62 0 0.0 0.0 0.00 0.00 0.00 76 1009.3
20260504040052 63 0 0.0 0.0 0.00 0.00 0.00 76 1009.5
20260504034550 63 0 0.0 0.0 0.00 0.00 0.00 75 1009.8
20260504033043 64 0 0.0 0.0 0.00 0.00 0.00 75 1009.8
20260504031541 64 0 0.0 0.0 0.00 0.00 0.00 75 1009.9
20260504030047 64 0 0.0 1.0 0.00 0.00 0.00 76 1009.9
20260504024538 65 0 0.0 0.0 0.00 0.00 0.00 74 1009.7
20260504023043 66 0 0.0 0.0 0.00 0.00 0.00 72 1009.6
20260504021538 67 0 0.0 0.0 0.00 0.00 0.00 70 1009.5
20260504020057 68 0 0.0 0.0 0.00 0.00 0.00 65 1009.3
20260504014554 69 0 0.0 0.0 0.00 0.00 0.00 62 1009.4
20260504013058 71 0 0.0 0.0 0.00 0.00 0.00 58 1008.9
20260504011545 72 0 0.0 0.0 0.00 0.00 0.00 56 1009.1
20260504010045 74 0 0.0 0.0 0.00 0.00 0.00 52 1009.0
20260504004553 75 0 0.0 2.0 0.00 0.00 0.00 50 1009.1
20260504003040 76 0 0.0 3.0 0.00 0.00 0.00 48 1009.1
20260504001615 77 0 1.0 6.0 0.00 0.00 0.00 47 1009.2
20260504000045 77 280 1.0 8.0 0.00 0.00 0.00 47 1009.4
20260503234539 77 0 0.0 8.0 0.00 0.00 0.00 46 1009.2
20260503233041 77 0 3.0 8.0 0.00 0.00 0.00 45 1009.5
20260503231537 78 352 1.0 8.0 0.00 0.00 0.00 45 1009.6
20260503230105 77 258 2.0 12.0 0.00 0.00 0.00 45 1009.7
20260503224543 78 254 0.0 8.0 0.00 0.00 0.00 46 1009.6
20260503223039 78 159 3.0 10.0 0.00 0.00 0.00 46 1009.9
20260503221537 78 244 2.0 13.0 0.00 0.00 0.00 45 1009.9
20260503220049 78 226 3.0 9.0 0.00 0.00 0.00 44 1010.0
20260503214540 78 291 2.0 15.0 0.00 0.00 0.00 45 1010.0
20260503213037 78 307 2.0 13.0 0.00 0.00 0.00 43 1010.1
20260503211537 78 249 5.0 14.0 0.00 0.00 0.00 43 1010.4
20260503210045 78 350 4.0 13.0 0.00 0.00 0.00 44 1010.5
20260503204543 78 190 4.0 13.0 0.00 0.00 0.00 42 1010.7
20260503203103 78 198 3.0 13.0 0.00 0.00 0.00 43 1010.7
20260503201545 79 188 2.0 16.0 0.00 0.00 0.00 41 1010.7
20260503200045 78 183 4.0 13.0 0.00 0.00 0.00 44 1010.8
20260503194545 78 223 3.0 13.0 0.00 0.00 0.00 44 1011.3
20260503193055 77 270 3.0 13.0 0.00 0.00 0.00 47 1011.3
20260503191551 76 271 5.0 15.0 0.00 0.00 0.00 46 1011.5
20260503190057 76 251 2.0 12.0 0.00 0.00 0.00 44 1011.7
20260503184547 75 240 6.0 14.0 0.00 0.00 0.00 44 1011.8
20260503183047 75 0 3.0 13.0 0.00 0.00 0.00 46 1011.8
20260503181558 74 186 4.0 15.0 0.00 0.00 0.00 45 1012.0
20260503180053 74 176 3.0 11.0 0.00 0.00 0.00 47 1012.9
20260503174546 72 169 3.0 10.0 0.00 0.00 0.00 46 1013.2
20260503173043 72 265 5.0 17.0 0.00 0.00 0.00 46 1013.4
20260503171538 71 360 4.0 16.0 0.00 0.00 0.00 48 1013.7
20260503081557 41 0 0.0 0.0 0.00 0.00 0.00 87 1018.1
20260503071536 42 0 0.0 0.0 0.00 0.00 0.00 86 1018.7
20260503060109 43 0 0.0 0.0 0.00 0.00 0.00 85 1019.0